Weather History for Ely, NV

Change the Weather History Date:

Tuesday, October 29, 2013

  Actual Average Record
Temperature  
Mean Temperature 36 °F 41 °F  
Max Temperature 43 °F 57 °F 74 °F (2003)
Min Temperature 28 °F 25 °F 1 °F (1971)
Degree Days  
Heating Degree Days 29 24  
Month to date heating degree days 608 561  
Since 1 July heating degree days 839 877  
Cooling Degree Days 0 0  
Month to date cooling degree days 0 0  
Year to date cooling degree days 387 218  
Moisture  
Dew Point 30 °F    
Average Humidity 85    
Maximum Humidity 100    
Minimum Humidity 70    
Precipitation  
Precipitation 0.02 in 0.03 in 0.65 in (1998)
Month to date precipitation 0.75 0.93  
Year to date precipitation 6.61 8.40  
Snow  
Snow 0.50 in 0.10 in 3.30 in (1991)
Month to date snowfall 3.0 2.7  
Since 1 July snowfall 3.0 3.1  
Since 1 September snowfall 3.0 3.1  
Snow Depth 1.00 in    
Sea Level Pressure  
Sea Level Pressure 29.87 in    
Wind  
Wind Speed 8 mph (WNW)    
Max Wind Speed 17 mph    
Max Gust Speed 22 mph    
Visibility 7 miles    
Events Rain , Snow    
T = Trace of Precipitation, MM = Missing Value Source: NWS Daily Summary

Daily Weather History Graph

Daily Weather History Graph

Search for Another Location

Airport:

Trip Planner

Search our weather history database for the weather conditions in past years. The results will help you decide how hot, cold, wet, or windy it might be!

Date:

Astronomy

Oct. 29, 2013 Rise Set
Actual Time 7:04 AM PDT 5:41 PM PDT
Civil Twilight 6:36 AM PDT 6:08 PM PDT
Nautical Twilight 6:05 AM PDT 6:40 PM PDT
Astronomical Twilight 5:33 AM PDT 7:11 PM PDT
Moon 2:00 AM PDT (10/29) 2:55 PM PDT (10/29)
Length of Visible Light 11h 32m
Length of Day
10h 36m
Waning Crescent, 24% of the Moon is Illuminated
Oct 29
Waning Crescent
Nov 3
New
Nov 9
First Quarter
Nov 17
Full
Nov 25
Last Quarter

Hourly Weather History & Observations

Time (PDT) Temp. Windchill Dew Point Humidity Pressure Visibility Wind Dir Wind Speed Gust Speed Precip Events Conditions
12:53 AM 28.9 °F 20.4 °F 26.1 °F 89% 29.76 in 10.0 mi SSW 9.2 mph - N/A   Clear
1:53 AM 28.9 °F 20.4 °F 25.0 °F 85% 29.75 in 10.0 mi SSW 9.2 mph - N/A   Mostly Cloudy
2:53 AM 28.9 °F 19.8 °F 26.1 °F 89% 29.79 in 10.0 mi SSW 10.4 mph - N/A   Mostly Cloudy
3:53 AM 28.9 °F 19.8 °F 25.0 °F 85% 29.75 in 10.0 mi SSW 10.4 mph - N/A   Clear
4:53 AM 28.9 °F 20.4 °F 25.0 °F 85% 29.78 in 10.0 mi SSW 9.2 mph - N/A   Mostly Cloudy
5:53 AM 30.0 °F 20.5 °F 26.1 °F 85% 29.81 in 10.0 mi SSW 11.5 mph - N/A   Overcast
6:53 AM 30.0 °F 20.5 °F 26.1 °F 85% 29.81 in 10.0 mi SSW 11.5 mph - N/A   Overcast
7:53 AM 30.9 °F 21.2 °F 27.0 °F 85% 29.83 in 10.0 mi SSW 12.7 mph - N/A   Overcast
8:48 AM 32.0 °F 24.2 °F 28.4 °F 87% 29.86 in 8.0 mi SSW 9.2 mph - 0.00 in Snow Light Snow
8:53 AM 32.0 °F 23.6 °F 28.9 °F 88% 29.86 in 9.0 mi SSW 10.4 mph - 0.00 in   Overcast
9:07 AM 33.8 °F 26.4 °F 28.4 °F 81% 29.87 in 10.0 mi SSW 9.2 mph - N/A   Overcast
9:53 AM 33.1 °F 23.0 °F 28.0 °F 82% 29.87 in 3.0 mi South 15.0 mph - 0.00 in Snow Light Snow
10:40 AM 33.8 °F 24.3 °F 28.4 °F 81% 29.88 in 1.8 mi SSE 13.8 mph - 0.00 in Snow Light Snow
10:53 AM 34.0 °F 24.6 °F 30.0 °F 85% 29.86 in 2.0 mi SSE 13.8 mph - 0.00 in Snow Light Snow
11:12 AM 35.6 °F 28.0 °F 28.4 °F 75% 29.87 in 5.0 mi SSE 10.4 mph - 0.00 in Snow Light Snow
11:38 AM 35.6 °F 28.6 °F 30.2 °F 81% 29.87 in 2.5 mi SSE 9.2 mph - 0.00 in Snow Light Snow
11:53 AM 36.0 °F 29.0 °F 30.9 °F 82% 29.86 in 4.0 mi SSE 9.2 mph - 0.00 in Snow Light Snow
12:53 PM 35.1 °F 31.0 °F 33.1 °F 92% 29.85 in 2.5 mi NW 4.6 mph - 0.00 in Snow Light Snow
1:01 PM 35.6 °F 31.7 °F 33.8 °F 93% 29.86 in 4.0 mi West 4.6 mph - 0.00 in Snow Light Snow
1:30 PM 37.4 °F - 33.8 °F 87% 29.85 in 10.0 mi Calm Calm - 0.00 in   Mostly Cloudy
1:53 PM 39.9 °F - 30.0 °F 68% 29.81 in 10.0 mi Calm Calm - 0.00 in Rain Light Rain
2:53 PM 41.0 °F 39.0 °F 28.9 °F 62% 29.81 in 10.0 mi Variable 3.5 mph - 0.00 in   Mostly Cloudy
3:53 PM 39.9 °F 35.8 °F 30.0 °F 68% 29.83 in 10.0 mi NNW 5.8 mph - N/A   Mostly Cloudy
4:53 PM 37.0 °F 28.5 °F 32.0 °F 82% 29.86 in 10.0 mi North 13.8 mph - N/A   Mostly Cloudy
5:37 PM 33.8 °F 24.8 °F 30.2 °F 87% 29.89 in 10.0 mi NNW 12.7 mph - 0.00 in Snow Light Snow
5:53 PM 34.0 °F 27.2 °F 32.0 °F 92% 29.89 in 6.0 mi North 8.1 mph - 0.00 in Snow Light Snow
6:09 PM 33.8 °F 26.4 °F 32.0 °F 93% 29.91 in 4.0 mi North 9.2 mph - 0.00 in Snow Light Snow
6:21 PM 33.8 °F 27.0 °F 32.0 °F 93% 29.91 in 4.0 mi NNE 8.1 mph - 0.00 in Snow Light Snow
6:50 PM 33.8 °F 27.7 °F 32.0 °F 93% 29.92 in 4.0 mi NNE 6.9 mph - 0.01 in Snow Light Snow
6:53 PM 33.1 °F 26.9 °F 32.0 °F 96% 29.92 in 3.0 mi NNE 6.9 mph - 0.01 in Snow Light Snow
7:02 PM 33.8 °F 27.0 °F 32.0 °F 93% 29.93 in 2.0 mi NNE 8.1 mph - 0.00 in Snow Light Snow
7:29 PM 32.0 °F 27.5 °F 32.0 °F 100% 29.93 in 3.0 mi North 4.6 mph - 0.00 in Snow Light Snow
7:53 PM 32.0 °F 27.5 °F 32.0 °F 100% 29.94 in 3.0 mi North 4.6 mph - 0.01 in Snow Light Snow
8:53 PM 32.0 °F 27.5 °F 32.0 °F 100% 29.94 in 10.0 mi NNW 4.6 mph - 0.00 in   Overcast
9:30 PM 32.0 °F 27.5 °F 32.0 °F 100% 29.96 in 10.0 mi NW 4.6 mph - N/A   Overcast
9:38 PM 32.0 °F 27.5 °F 32.0 °F 100% 29.96 in 10.0 mi NW 4.6 mph - N/A   Overcast
9:44 PM 32.0 °F 28.7 °F 32.0 °F 100% 29.96 in 10.0 mi NW 3.5 mph - N/A   Overcast
9:53 PM 32.0 °F 26.4 °F 32.0 °F 100% 29.96 in 10.0 mi North 5.8 mph - N/A   Overcast
10:00 PM 32.0 °F 28.7 °F 32.0 °F 100% 29.97 in 10.0 mi NNW 3.5 mph - N/A   Overcast
10:53 PM 32.0 °F 25.6 °F 32.0 °F 100% 29.97 in 10.0 mi North 6.9 mph - N/A   Overcast
11:53 PM 30.0 °F 23.2 °F 30.0 °F 100% 29.98 in 2.0 mi North 6.9 mph - N/A   Overcast